This is the latest recevied weather packets stored in our database for station/object SY3EBK-13. If no packets are shown the sender has not sent any weather packets the latest 1 day(s).
| Time | Temp. | Humidity | Pressure | Rain* | Wind** | Luminosity | Snow |
|---|---|---|---|---|---|---|---|
| 1777990226 | 15° C | 47% | 915.8 hPa | - | 0 m/s | - | - |
| 1777989326 | 15.56° C | 47% | 915.8 hPa | - | 0 m/s | - | - |
| 1777988426 | 15.56° C | 47% | 915.7 hPa | - | 0 m/s | - | - |
| 1777987526 | 15.56° C | 47% | 915.8 hPa | - | 0 m/s | - | - |
| 1777986626 | 15.56° C | 47% | 915.9 hPa | - | 0 m/s | - | - |
| 1777985726 | 15.56° C | 47% | 916 hPa | - | 0 m/s | - | - |
| 1777984826 | 15.56° C | 47% | 916.2 hPa | - | 0 m/s | - | - |
| 1777983926 | 15.56° C | 47% | 916.2 hPa | - | 0 m/s | - | - |
| 1777983026 | 16.11° C | 46% | 916.3 hPa | - | 0 m/s | - | - |
| 1777982126 | 16.11° C | 47% | 916.3 hPa | - | 0 m/s | - | - |
| 1777981226 | 15.56° C | 48% | 916.4 hPa | - | 0 m/s | - | - |
| 1777980326 | 16.11° C | 47% | 916.5 hPa | - | 0 m/s | - | - |
| 1777979426 | 15.56° C | 48% | 916.5 hPa | - | 0 m/s | - | - |
| 1777978526 | 15.56° C | 48% | 916.6 hPa | - | 0 m/s | - | - |
| 1777977626 | 15.56° C | 47% | 916.4 hPa | - | 0 m/s | - | - |
| 1777976726 | 16.11° C | 46% | 916.4 hPa | - | 0 m/s | - | - |
| 1777975826 | 16.11° C | 44% | 916.5 hPa | - | 0 m/s | - | - |
| 1777974926 | 15.56° C | 46% | 916.5 hPa | - | 0 m/s | - | - |
| 1777974026 | 15.56° C | 45% | 916.7 hPa | - | 0 m/s | - | - |
| 1777973126 | 15° C | 48% | 916.7 hPa | - | 0 m/s | - | - |
* Rain since midnight (hover to see other rain measurements)
** Current wind speed in m/s (hover to see current wind gust speed)